Weather History for Valparaiso, FL

Change the Weather History Date:

Thursday, March 21, 2013

  Actual Average Record
Temperature  
Mean Temperature 54 °F -  
Max Temperature 67 °F 70 °F 85 °F (1982)
Min Temperature 42 °F 47 °F 24 °F (1990)
Degree Days  
Heating Degree Days 12    
Growing Degree Days 4 (Base 50)    
Moisture  
Dew Point 29 °F    
Average Humidity 43    
Maximum Humidity 73    
Minimum Humidity 15    
Precipitation  
Precipitation 0.00 in - - ()
Sea Level Pressure  
Sea Level Pressure 30.01 in    
Wind  
Wind Speed 9 mph (NNW)    
Max Wind Speed 15 mph    
Max Gust Speed 23 mph    
Visibility 10 miles    
Events      
Averages and records for this station are not official NWS values.
T = Trace of Precipitation, MM = Missing Value Source: NWS Daily Summary

Daily Weather History Graph

Daily Weather History Graph

Search for Another Location

Airport:

Trip Planner

Search our weather history database for the weather conditions in past years. The results will help you decide how hot, cold, wet, or windy it might be!

Date:

Astronomy

Mar. 21, 2013 Rise Set
Actual Time 6:48 AM CDT 6:58 PM CDT
Civil Twilight 6:24 AM CDT 7:22 PM CDT
Nautical Twilight 5:56 AM CDT 7:50 PM CDT
Astronomical Twilight 5:28 AM CDT 8:18 PM CDT
Moon 1:47 PM CDT (3/21) 2:49 AM CDT (3/21)
Length of Visible Light 12h 57m
Length of Day
12h 09m
Waxing Gibbous, 69% of the Moon is Illuminated
Mar 21
Waxing Gibbous
Mar 27
Full
Apr 2
Last Quarter
Apr 10
New
Apr 18
First Quarter

Hourly Weather History & Observations

Time (CDT) Temp. Windchill Dew Point Humidity Pressure Visibility Wind Dir Wind Speed Gust Speed Precip Events Conditions
12:55 AM 43.0 °F 38.2 °F 31.5 °F 64% 30.03 in 10.0 mi NW 8.1 mph - N/A   Clear
1:55 AM 47.8 °F - 29.7 °F 49% 30.04 in 10.0 mi NNW 10.4 mph - N/A   Partly Cloudy
2:55 AM 45.9 °F 40.8 °F 29.8 °F 54% 30.03 in 10.0 mi NNW 10.4 mph - N/A   Clear
3:55 AM 44.4 °F 40.5 °F 29.8 °F 57% 30.01 in 10.0 mi NNW 6.9 mph - N/A   Partly Cloudy
4:55 AM 44.2 °F 41.0 °F 30.4 °F 58% 30.00 in 10.0 mi North 5.8 mph - N/A   Partly Cloudy
4:56 AM 44.6 °F 40.2 °F 32.0 °F 61% 30.00 in 10.0 mi North 8.1 mph - N/A   Partly Cloudy
5:55 AM 43.2 °F 41.5 °F 30.9 °F 62% 30.01 in 10.0 mi North 3.5 mph - N/A   Scattered Clouds
6:55 AM 42.8 °F 41.1 °F 30.9 °F 63% 30.03 in 10.0 mi WNW 3.5 mph - N/A   Mostly Cloudy
7:55 AM 45.0 °F 43.5 °F 31.6 °F 60% 30.06 in 10.0 mi NNW 3.5 mph - N/A   Scattered Clouds
8:55 AM 49.8 °F - 35.6 °F 58% 30.06 in 10.0 mi North 8.1 mph - N/A   Mostly Cloudy
8:56 AM 50.0 °F - 28.4 °F 43% 30.05 in 10.0 mi North 9.2 mph - N/A   Overcast
9:56 AM 53.6 °F - 23.0 °F 30% 30.07 in 10.0 mi North 11.5 mph - N/A   Mostly Cloudy
9:57 AM 53.4 °F - 23.7 °F 32% 30.07 in 10.0 mi North 11.5 mph - N/A   Mostly Cloudy
10:11 AM 55.4 °F - 21.2 °F 26% 30.06 in 10.0 mi North 15.0 mph - N/A   Light Drizzle
10:18 AM 55.4 °F - 21.2 °F 26% 30.05 in 10.0 mi North 13.8 mph - N/A   Scattered Clouds
10:46 AM 55.4 °F - 23.0 °F 29% 30.04 in 10.0 mi North 12.7 mph 23.0 mph N/A   Light Drizzle
10:54 AM 57.2 °F - 23.0 °F 27% 30.04 in 10.0 mi NNE 12.7 mph - N/A   Mostly Cloudy
10:56 AM 57.2 °F - 23.0 °F 27% 30.05 in 10.0 mi North 13.8 mph - N/A   Mostly Cloudy
10:57 AM 57.0 °F - 23.9 °F 28% 30.05 in 10.0 mi NNW 11.5 mph - N/A   Mostly Cloudy
11:57 AM 59.7 °F - 20.7 °F 22% 30.04 in 10.0 mi North 11.5 mph 19.6 mph N/A   Mostly Cloudy
12:57 PM 62.1 °F - 20.3 °F 20% 30.02 in 10.0 mi North 11.5 mph 18.4 mph N/A   Mostly Cloudy
1:55 PM 64.2 °F - 22.6 °F 20% 29.99 in 10.0 mi North 10.4 mph - N/A   Mostly Cloudy
2:55 PM 65.8 °F - 17.1 °F 15% 29.96 in 10.0 mi North 8.1 mph - N/A   Mostly Cloudy
3:55 PM 65.7 °F - 16.7 °F 15% 29.94 in 10.0 mi North 6.9 mph - N/A   Mostly Cloudy
4:59 PM 63.5 °F - 32.0 °F 31% 29.92 in 10.0 mi South 11.5 mph - N/A   Mostly Cloudy
5:59 PM 61.2 °F - 35.2 °F 38% 29.92 in 10.0 mi SSW 9.2 mph - N/A   Mostly Cloudy
6:59 PM 58.8 °F - 35.8 °F 42% 29.95 in 10.0 mi SSW 4.6 mph - N/A   Mostly Cloudy
7:55 PM 56.7 °F - 37.4 °F 49% 29.95 in 10.0 mi SSW 3.5 mph - N/A   Mostly Cloudy
8:55 PM 55.6 °F - 39.4 °F 55% 29.94 in 10.0 mi WSW 4.6 mph - N/A   Mostly Cloudy
9:55 PM 55.0 °F - 40.1 °F 57% 29.95 in 10.0 mi Variable 1.2 mph - N/A   Mostly Cloudy
10:55 PM 51.8 °F - 42.3 °F 70% 29.95 in 10.0 mi NW 1.2 mph - N/A   Mostly Cloudy
11:55 PM 49.5 °F - 41.2 °F 73% 29.95 in 10.0 mi NNE 6.9 mph - N/A   Mostly Cloudy